[[{"header":{"parameterUnit":"m.s-1","parameterCategory":1,"la1":30.2991,"la2":30.254,"lo1":-89.0895,"lo2":-89.0444,"dy":0.0017,"dx":0.0017,"nx":28,"ny":28,"refTime":"2024-05-09T09:00:00:Z","depth":0,"parameterNumber":2,"parameterNumberName":"U-component_of_WINDS"},"data":[0,0,0,0,0,0,0,0,0,0,0,0,0,0,0,0,0,0,0,0,0,0,0,0,0,0,0,0,0,0,0,0,0,0,0,0,0,0,0,0,0,0,0,0,0,0,0,0,0,0,0,0,0,0,0,0,0,0,2.9018,2.9019,0,2.9088,2.9089,2.909,2.91,2.9099,2.9098,2.9098,2.9173,2.9176,2.9178,0,0,0,0,0,0,0,0,0,0,0,0,0,2.8897,2.8899,2.9018,2.9019,2.902,2.9088,2.9089,2.909,2.91,2.9099,2.9098,2.9097,2.9172,2.9175,2.9179,0,0,0,0,0,0,0,0,0,0,0,0,0,2.8957,2.89,2.9018,2.9033,2.9035,2.9088,2.9089,2.909,2.91,2.9099,2.9098,2.9097,2.9171,2.9175,2.9179,2.9223,0,0,2.9191,2.9193,0,0,0,0,0,0,0,0,2.8953,2.8961,2.9029,2.9032,2.9034,2.9084,2.9074,2.9135,2.91,2.9075,2.9098,2.9096,2.9145,2.9151,2.9166,2.9227,2.923,2.9191,2.9194,2.9195,2.9197,0,0,0,0,0,0,0,2.8949,2.8958,2.9046,2.9031,2.9033,2.9038,2.9045,2.9086,2.9115,2.9077,2.9078,2.9086,2.9146,2.9162,2.9168,2.9231,2.9191,2.9195,2.9197,2.9199,2.9335,2.9337,0,0,0,0,0,0,2.8942,2.8955,2.9044,2.9048,2.899,2.904,2.9049,2.9069,2.9114,2.912,2.9087,2.9086,2.9156,2.9163,2.9171,2.9227,2.9195,2.9199,2.9201,2.9334,2.9336,2.9337,0,0,0,0,0,0,2.8939,2.895,2.9041,2.9002,2.9014,2.9044,2.9066,2.9071,2.9087,2.9121,2.9127,2.9098,2.9155,2.9165,2.9211,2.923,2.9201,2.9204,2.9333,2.9335,2.9336,2.9339,0,0,0,0,0,0,2.8936,2.8949,2.8964,2.9002,2.9016,2.9077,2.9067,2.9073,2.9094,2.9094,2.9134,2.9139,2.9155,2.9205,2.9214,2.9235,2.9208,2.9331,2.9333,2.9336,2.9337,2.9341,2.9344,0,0,0,0,0,2.8931,2.8962,2.8965,2.8975,2.9035,2.9078,2.9087,2.9103,2.9095,2.9112,2.9135,2.9138,2.9226,2.9209,2.922,2.9242,2.933,2.9333,2.9336,2.9336,2.934,2.9343,0,0,0,0,0,0,2.8926,2.8967,2.8971,2.9014,2.9043,2.908,2.9101,2.9107,2.9139,2.9138,2.9159,2.9168,2.9213,2.9232,2.9212,2.9289,2.9278,2.9283,2.9274,2.9278,2.9281,2.9275,2.9211,0,0,0,0,0,2.893,2.896,2.8995,2.903,2.9045,2.9071,2.909,2.9101,2.9132,2.9144,2.917,2.9201,2.9236,2.9258,2.9292,2.9341,2.9351,2.9362,2.9365,2.9367,2.9371,2.9401,2.9406,2.9346,2.9346,2.9346,0,0,2.8938,2.8964,2.8982,2.903,2.9053,2.9086,2.9081,2.9115,2.914,2.915,2.9194,2.9215,2.9251,2.9299,2.9321,2.9316,2.9391,2.9371,2.9373,2.9375,2.9404,2.941,2.9415,2.9348,2.9348,2.9348,0,0,2.8969,2.8992,2.9025,2.9049,2.9084,2.9102,2.911,2.9148,2.9161,2.9206,2.9215,2.9247,2.9306,2.9332,2.9353,2.9399,2.9404,2.941,2.9426,2.9454,2.9459,2.9463,2.9481,2.9487,2.9414,2.9414,2.9414,0,2.8975,2.9023,2.9041,2.9075,2.9097,2.9108,2.9143,2.9166,2.9211,2.9227,2.9221,2.9297,2.9323,2.9378,2.9389,2.9406,2.9417,2.9404,2.9457,2.9461,2.9466,2.9482,2.9489,2.9414,2.9414,2.9414,2.9414,0,2.9029,2.9063,2.9086,2.9129,2.9154,2.9188,2.9213,2.9236,2.9246,2.9266,2.9313,2.9344,2.9386,2.94,2.941,2.9457,2.9454,2.9452,2.9441,2.9471,2.9488,2.9494,2.9415,2.9415,2.9415,2.9415,0,0,2.9056,2.9111,2.9119,2.914,2.9182,2.9209,2.9246,2.9286,2.9306,2.9339,2.9371,2.9423,2.9422,2.9446,2.946,2.9485,2.9521,2.9481,2.9482,2.9488,2.9578,2.9578,2.9585,2.9526,2.9527,2.9528,2.9575,0,2.9093,2.9156,2.9175,2.9229,2.9262,2.9275,2.9307,2.9338,2.9358,2.939,2.9413,2.9449,2.9446,2.9461,2.9486,2.9511,2.954,2.9508,2.9557,2.9559,2.9547,2.9593,2.9593,2.9636,2.9581,2.9582,2.9583,0,2.9142,2.9176,2.9233,2.9274,2.9288,2.9316,2.9356,2.9386,2.9423,2.9436,2.9464,2.9477,2.9518,2.9506,2.9564,2.9542,2.9564,2.958,2.9582,2.9587,2.9572,2.9599,2.965,2.9656,2.9593,2.9592,2.9592,0,2.9157,2.9216,2.9259,2.9277,2.9325,2.9345,2.9366,2.9401,2.9425,2.9461,2.9477,2.9518,2.954,2.9572,2.9596,2.9585,2.9653,2.9642,2.9666,2.9666,2.9679,2.9677,2.9733,2.9694,2.9693,2.9693,2.9693,0,2.9195,2.923,2.9266,2.9292,2.9333,2.9356,2.9396,2.9419,2.9451,2.9483,2.9498,2.9528,2.9558,2.9593,2.9612,2.9659,2.9669,2.9682,2.9686,2.968,2.9678,2.9694,2.9691,2.9695,2.9695,2.9694,2.9694,0,2.9217,2.9243,2.929,2.9333,2.9345,2.9373,2.941,2.9437,2.9459,2.95,2.9511,2.9546,2.9589,2.9616,2.967,2.9684,2.9734,2.9738,2.9722,2.9724,2.9746,2.9744,2.9813,2.9824,2.9777,2.9778,2.9778,0,2.9239,2.9266,2.9313,2.9335,2.9357,2.9392,2.9417,2.9443,2.9469,2.9514,2.9536,2.958,2.9615,2.9683,2.9715,2.9757,2.9762,2.9784,2.9768,2.9762,2.9763,2.9761,2.9764,2.9786,2.9786,2.9786,2.9787,0,2.9276,2.9288,2.9323,2.9363,2.9393,2.9426,2.9459,2.9477,2.9509,2.9538,2.9581,2.9609,2.9665,2.9709,2.9754,2.9779,2.9789,2.9792,2.9799,2.9793,2.9782,2.9789,2.9728,2.9789,2.9789,2.9789,2.9789,2.9789,2.9299,2.9325,2.9362,2.9401,2.9429,2.9461,2.9489,2.9515,2.9551,2.9598,2.9612,2.9658,2.9697,2.976,2.9785,2.9823,2.982,2.9832,2.9834,2.9837,2.9837,2.9777,2.9832,2.9831,2.9831,2.9831,2.9831,0,2.9337,2.9362,2.9398,2.9444,2.9476,2.9483,2.9521,2.9548,2.9587,2.9623,2.9659,2.971,2.9753,2.9789,2.9834,2.9858,2.9864,2.9869,2.9867,2.9873,2.9836,2.9825,2.9864,2.9864,2.9864,2.9864,2.9864,2.9864,2.936,2.9404,2.9422,2.9481,2.9507,2.9551,2.9573,2.9603,2.9632,2.9688,2.9724,2.9747,2.9784,2.9832,2.9873,2.9883,2.9899,2.9903,2.9914,2.9879,2.9875,2.9872,2.9861,2.9907,2.9907,2.9948,2.9948,2.9948]},{"header":{"parameterUnit":"m.s-1","parameterCategory":1,"la1":30.2991,"la2":30.254,"lo1":-89.0895,"lo2":-89.0444,"dy":0.0017,"dx":0.0017,"nx":28,"ny":28,"refTime":"2024-05-09T09:00:00:Z","depth":0,"parameterNumber":3,"parameterNumberName":"V-component_of_WINDS"},"data":[0,0,0,0,0,0,0,0,0,0,0,0,0,0,0,0,0,0,0,0,0,0,0,0,0,0,0,0,0,0,0,0,0,0,0,0,0,0,0,0,0,0,0,0,0,0,0,0,0,0,0,0,0,0,0,0,0,0,-0.1344,-0.1342,0,-0.1162,-0.116,-0.1158,-0.1192,-0.1196,-0.1199,-0.1202,-0.1011,-0.1003,-0.0995,0,0,0,0,0,0,0,0,0,0,0,0,0,-0.172,-0.1713,-0.1344,-0.1342,-0.134,-0.1162,-0.116,-0.1157,-0.1192,-0.1196,-0.12,-0.1204,-0.1013,-0.1004,-0.0994,0,0,0,0,0,0,0,0,0,0,0,0,0,-0.1549,-0.1711,-0.1345,-0.1336,-0.1333,-0.1163,-0.116,-0.1157,-0.1191,-0.1196,-0.1201,-0.1206,-0.1016,-0.1005,-0.0992,-0.0818,0,0,-0.0955,-0.095,0,0,0,0,0,0,0,0,-0.1559,-0.1536,-0.1339,-0.1336,-0.1333,-0.1205,-0.1222,-0.1043,-0.119,-0.1245,-0.1202,-0.1208,-0.1071,-0.1055,-0.1009,-0.0809,-0.0801,-0.0954,-0.0947,-0.0941,-0.0938,0,0,0,0,0,0,0,-0.1571,-0.1544,-0.1272,-0.1337,-0.1332,-0.134,-0.1322,-0.1189,-0.1132,-0.124,-0.1243,-0.1221,-0.107,-0.1021,-0.1005,-0.0798,-0.0954,-0.0943,-0.0936,-0.0931,-0.0452,-0.0447,0,0,0,0,0,0,-0.1586,-0.1553,-0.1278,-0.1267,-0.1461,-0.133,-0.1309,-0.1241,-0.1134,-0.1122,-0.1217,-0.1223,-0.104,-0.1019,-0.0999,-0.0792,-0.0941,-0.093,-0.0923,-0.0458,-0.0451,-0.0445,0,0,0,0,0,0,-0.1594,-0.1561,-0.1285,-0.141,-0.1376,-0.1318,-0.1242,-0.1235,-0.1186,-0.1116,-0.1106,-0.1177,-0.1043,-0.1016,-0.0865,-0.0786,-0.0924,-0.0913,-0.0464,-0.0456,-0.0448,-0.0374,0,0,0,0,0,0,-0.1605,-0.1564,-0.1497,-0.1409,-0.1369,-0.1154,-0.1237,-0.1228,-0.1165,-0.1172,-0.1076,-0.1065,-0.1045,-0.0883,-0.0852,-0.0771,-0.0904,-0.0471,-0.046,-0.0451,-0.0384,-0.0365,-0.0349,0,0,0,0,0,-0.1618,-0.1481,-0.1494,-0.146,-0.1285,-0.115,-0.1127,-0.1107,-0.1159,-0.1092,-0.1048,-0.1068,-0.0799,-0.0867,-0.0833,-0.0747,-0.0476,-0.0463,-0.0451,-0.0392,-0.0369,-0.0349,0,0,0,0,0,0,-0.1558,-0.1469,-0.1482,-0.1312,-0.1239,-0.1156,-0.107,-0.1083,-0.0991,-0.1001,-0.0979,-0.0958,-0.0805,-0.076,-0.0838,-0.0576,-0.0645,-0.0625,-0.0611,-0.0588,-0.0571,-0.0586,-0.0894,0,0,0,0,0,-0.1526,-0.1425,-0.1352,-0.1209,-0.1172,-0.1128,-0.1068,-0.106,-0.0982,-0.095,-0.0895,-0.0817,-0.0716,-0.0649,-0.0551,-0.0377,-0.0359,-0.0302,-0.0284,-0.0271,-0.0254,-0.0164,-0.0139,-0.0405,-0.0406,-0.0406,0,0,-0.1457,-0.1396,-0.1332,-0.1196,-0.1138,-0.1035,-0.1101,-0.0986,-0.091,-0.0932,-0.0788,-0.0745,-0.0657,-0.0495,-0.0421,-0.0453,-0.0177,-0.0255,-0.0244,-0.0236,-0.0149,-0.0124,-0.0102,-0.0397,-0.0399,-0.04,0,0,-0.1279,-0.1221,-0.1099,-0.1041,-0.0954,-0.0926,-0.0897,-0.0812,-0.0786,-0.0641,-0.0657,-0.0565,-0.0389,-0.0328,-0.0274,-0.0079,-0.0096,-0.0047,0.0044,0.0131,0.0152,0.0171,0.0236,0.026,-0.0031,-0.0031,-0.0031,0,-0.1204,-0.1049,-0.1034,-0.092,-0.0861,-0.088,-0.0757,-0.0701,-0.0585,-0.0544,-0.0582,-0.0367,-0.0308,-0.0135,-0.0088,-0.0042,-0.001,-0.0058,0.0148,0.0166,0.0184,0.0247,0.0272,-0.0026,-0.0027,-0.0027,-0.0028,0,-0.0963,-0.0856,-0.0767,-0.066,-0.059,-0.0472,-0.044,-0.0371,-0.037,-0.0339,-0.0193,-0.0125,-0.0017,0.0026,0.003,0.0198,0.0175,0.0142,0.0073,0.0214,0.0273,0.0298,-0.0019,-0.0021,-0.0022,-0.0023,0,0,-0.074,-0.063,-0.0598,-0.0552,-0.0459,-0.0375,-0.0259,-0.0156,-0.01,-0.002,0.0076,0.0222,0.019,0.0252,0.0262,0.034,0.0484,0.0297,0.0299,0.0326,0.0669,0.069,0.0718,0.0473,0.0478,0.0482,0.066,0,-0.0557,-0.0354,-0.034,-0.0157,-0.006,-0.0079,0.0021,0.0089,0.012,0.0208,0.0243,0.0345,0.0298,0.0333,0.0409,0.045,0.0553,0.0438,0.0561,0.0565,0.0537,0.075,0.0775,0.094,0.0684,0.0688,0.0691,0,-0.0315,-0.0233,-0.0042,0.0031,0.0073,0.0163,0.0256,0.034,0.0415,0.0432,0.0498,0.0496,0.0613,0.054,0.0701,0.0622,0.0673,0.07,0.0707,0.0718,0.0635,0.0763,0.0994,0.1017,0.0728,0.0725,0.0722,0,-0.0177,-0.0018,0.0115,0.0156,0.0247,0.0309,0.035,0.042,0.0479,0.0561,0.0599,0.0695,0.0747,0.082,0.0843,0.0788,0.1001,0.0931,0.1017,0.1016,0.1062,0.1058,0.13,0.1099,0.1099,0.1099,0.1098,0,0.0025,0.0142,0.0178,0.026,0.0389,0.0404,0.0532,0.0569,0.063,0.0718,0.0709,0.0792,0.0819,0.0906,0.0925,0.1052,0.1077,0.1092,0.1096,0.1092,0.1089,0.1124,0.1112,0.1105,0.1104,0.1102,0.1101,0,0.0202,0.0231,0.0374,0.0445,0.0466,0.0558,0.0619,0.0697,0.0725,0.0837,0.0864,0.0909,0.101,0.104,0.1164,0.1176,0.1324,0.1319,0.1298,0.1297,0.1379,0.137,0.165,0.1686,0.1465,0.1467,0.1469,0,0.0327,0.0416,0.0495,0.0552,0.0594,0.0687,0.0745,0.0764,0.0825,0.0914,0.098,0.108,0.116,0.1323,0.1367,0.1459,0.1454,0.1546,0.1468,0.1459,0.1451,0.1444,0.1451,0.156,0.1562,0.1564,0.1566,0,0.0546,0.0554,0.0639,0.0727,0.0796,0.0868,0.0936,0.0983,0.1011,0.1081,0.1182,0.1244,0.1367,0.1464,0.1557,0.1599,0.1586,0.159,0.1613,0.1609,0.1592,0.1598,0.1334,0.1583,0.1581,0.158,0.1579,0.1578,0.0698,0.0774,0.0839,0.0933,0.0985,0.1048,0.1122,0.1158,0.1243,0.1342,0.1348,0.1457,0.1525,0.1648,0.1694,0.1779,0.1753,0.1789,0.1797,0.1805,0.1809,0.158,0.1797,0.1797,0.1796,0.1796,0.1796,0,0.0913,0.0953,0.1038,0.1131,0.1204,0.1183,0.1256,0.1318,0.1413,0.1477,0.1555,0.1669,0.1762,0.1812,0.1904,0.1962,0.1958,0.1986,0.198,0.1989,0.183,0.1798,0.1987,0.1987,0.1987,0.1987,0.1987,0.1987,0.1033,0.1157,0.1173,0.1322,0.1362,0.1467,0.151,0.1567,0.1617,0.1744,0.182,0.1851,0.1908,0.2003,0.2087,0.2099,0.2132,0.2162,0.217,0.2021,0.2001,0.1982,0.1952,0.217,0.217,0.2321,0.2323,0.2324]}]]